Location: Casteau
(50.5142°N, 4.0161°E)
Time: 18:47:34
(UTC+00:00)

Tiros 1 - Pass Details

Date: 01 August 2021
Orbit: 630 x 663 km, 48.4° (Epoch: 28 September)

Event Time Altitude Azimuth Distance (km) Brightness Sun altitude
Rises 16:22:57 0° 186° (S) 2,978 10.7 27.5°
Reaches altitude 10° 16:27:10 10° 150° (SSE) 2,066 9.6 26.8°
Maximum altitude 16:28:22 11° 135° (SE) 2,007 9.4 26.6°
Drops below altitude 10° 16:29:34 10° 121° (ESE) 2,065 9.4 26.4°
Sets 16:33:47 0° 85° (E) 2,973 10.0 25.8°
